User: anonymous   Login
Location: Champignolles
(47.0543°N, 4.5663°E)
Time: 11:00:39
(UTC+00:00)
Language:

Cosmos 389 Rocket - Orbit

View from above orbital plane
View from above orbital plane
View from above satellite
View from above satellite

Ground track
Ground track

The orbit data is extracted from the following two-line orbital elements,

1 04814U 70113B   21063.88426695  .00002607  00000-0  72376-4 0  9993
2 04814  81.1426 203.7531 0024818  94.0655 266.3421 15.36179204743101
Epoch (UTC): 04 March 2021 21:13:20
Eccentricity: 0.0024818
inclination: 81.1426°
perigee height: 440 km
apogee height: 474 km
right ascension of ascending node: 203.7531°
argument of perigee: 94.0655°
revolutions per day: 15.36179204
mean anomaly at epoch: 266.3421°
orbit number at epoch: 74310

The dashed part of the orbit path shows where the satellite is in the earth's shadow,  

DLR